[[{"header":{"parameterUnit":"m.s-1","parameterCategory":1,"la1":30.2991,"la2":30.254,"lo1":-89.0895,"lo2":-89.0444,"dy":0.0017,"dx":0.0017,"nx":28,"ny":28,"refTime":"2025-03-27T21:00:00:Z","depth":0,"parameterNumber":2,"parameterNumberName":"U-component_of_WINDS"},"data":[0,0,0,0,0,0,0,0,0,0,0,0,0,0,0,0,0,0,0,0,0,0,0,0,0,0,0,0,0,0,0,0,0,0,0,0,0,0,0,0,0,0,0,0,0,0,0,0,0,0,0,0,0,0,0,0,0,0,-6.2976,-6.2977,0,-6.3072,-6.3073,-6.3074,-6.305,-6.3048,-6.3046,-6.3044,-6.314,-6.3144,-6.3148,0,0,0,0,0,0,0,0,0,0,0,0,0,-6.277,-6.2774,-6.2976,-6.2977,-6.2978,-6.3072,-6.3073,-6.3074,-6.305,-6.3048,-6.3046,-6.3043,-6.3138,-6.3143,-6.3148,0,0,0,0,0,0,0,0,0,0,0,0,0,-6.2862,-6.2776,-6.2975,-6.2977,-6.2978,-6.3072,-6.3073,-6.3075,-6.3051,-6.3048,-6.3045,-6.3042,-6.3136,-6.3143,-6.3149,-6.3245,0,0,-6.3169,-6.3171,0,0,0,0,0,0,0,0,-6.2857,-6.287,-6.2976,-6.2977,-6.2979,-6.3046,-6.3036,-6.3132,-6.3051,-6.3023,-6.3044,-6.3041,-6.311,-6.3119,-6.3143,-6.325,-6.3254,-6.3169,-6.3173,-6.3176,-6.3178,0,0,0,0,0,0,0,-6.2851,-6.2866,-6.3014,-6.2977,-6.2979,-6.2973,-6.2983,-6.3054,-6.3081,-6.3025,-6.3024,-6.3036,-6.3111,-6.3137,-6.3145,-6.3255,-6.3169,-6.3175,-6.3179,-6.3181,-6.3448,-6.3451,0,0,0,0,0,0,-6.2843,-6.286,-6.3011,-6.3016,-6.291,-6.2979,-6.299,-6.3027,-6.308,-6.3086,-6.3038,-6.3034,-6.3127,-6.3138,-6.3148,-6.3264,-6.3176,-6.3182,-6.3186,-6.3445,-6.3449,-6.3452,0,0,0,0,0,0,-6.2839,-6.2857,-6.3007,-6.2938,-6.2957,-6.2986,-6.3027,-6.3031,-6.3057,-6.309,-6.3095,-6.306,-6.3125,-6.3139,-6.3222,-6.3267,-6.3185,-6.3191,-6.3441,-6.3446,-6.345,-6.3497,0,0,0,0,0,0,-6.2833,-6.2856,-6.2892,-6.2939,-6.2961,-6.3078,-6.303,-6.3035,-6.3068,-6.3064,-6.3112,-6.3117,-6.3124,-6.3213,-6.3228,-6.3274,-6.3196,-6.3437,-6.3443,-6.3449,-6.3491,-6.3503,-6.3512,0,0,0,0,0,-6.2826,-6.29,-6.2894,-6.2912,-6.3007,-6.3081,-6.3093,-6.3101,-6.3072,-6.3109,-6.3131,-6.3115,-6.3261,-6.3221,-6.3239,-6.3287,-6.3434,-6.3441,-6.3448,-6.3486,-6.35,-6.3512,0,0,0,0,0,0,-6.2854,-6.2906,-6.2899,-6.2991,-6.3032,-6.3077,-6.3123,-6.3116,-6.3164,-6.3158,-6.3166,-6.3177,-6.3262,-6.3284,-6.3238,-6.3385,-6.3343,-6.3354,-6.3366,-6.338,-6.339,-6.3381,-6.3201,0,0,0,0,0,-6.2872,-6.2929,-6.2971,-6.3047,-6.3069,-6.3093,-6.3125,-6.3129,-6.3171,-6.3188,-6.3216,-6.3257,-6.3312,-6.3348,-6.3401,-6.3497,-6.3506,-6.3539,-6.355,-6.3559,-6.3566,-6.3619,-6.3634,-6.3476,-6.3476,-6.3476,0,0,-6.2907,-6.2942,-6.2977,-6.3054,-6.3086,-6.3144,-6.3107,-6.317,-6.3213,-6.3197,-6.3276,-6.33,-6.3346,-6.3436,-6.3477,-6.3457,-6.3614,-6.3568,-6.3574,-6.3577,-6.3628,-6.3643,-6.3657,-6.3481,-6.348,-6.3479,0,0,-6.3,-6.3033,-6.3101,-6.3135,-6.3186,-6.3203,-6.3219,-6.3267,-6.3282,-6.3363,-6.3353,-6.3405,-6.35,-6.3534,-6.3564,-6.3677,-6.3664,-6.3695,-6.3747,-6.3799,-6.3811,-6.3822,-6.3861,-6.3875,-6.3704,-6.3704,-6.3704,0,-6.3036,-6.3123,-6.3136,-6.3201,-6.3235,-6.3228,-6.3296,-6.3329,-6.3394,-6.3418,-6.3396,-6.3517,-6.3548,-6.3646,-6.3674,-6.3699,-6.3718,-6.3686,-6.3809,-6.382,-6.3831,-6.3868,-6.3882,-6.3707,-6.3706,-6.3706,-6.3706,0,-6.3166,-6.3227,-6.3276,-6.3341,-6.3382,-6.3448,-6.3471,-6.3511,-6.3514,-6.3533,-6.3617,-6.3655,-6.3716,-6.3741,-6.3742,-6.384,-6.3826,-6.3807,-6.3764,-6.3849,-6.3883,-6.3898,-6.3711,-6.371,-6.3709,-6.3708,0,0,-6.3271,-6.3347,-6.3365,-6.3395,-6.3453,-6.3501,-6.3569,-6.3631,-6.3664,-6.3712,-6.3768,-6.3852,-6.3835,-6.3869,-6.3876,-6.3922,-6.4009,-6.3897,-6.3899,-6.3914,-6.4118,-6.4129,-6.4145,-6.4003,-6.4006,-6.4008,-6.4113,0,-6.3367,-6.3486,-6.3502,-6.3608,-6.3665,-6.3662,-6.3722,-6.3764,-6.3786,-6.3838,-6.3862,-6.3921,-6.3896,-6.3917,-6.3963,-6.3988,-6.4049,-6.3982,-6.4053,-6.4056,-6.4037,-6.4164,-6.4175,-6.4272,-6.4127,-6.413,-6.4131,0,-6.3493,-6.3546,-6.3657,-6.3711,-6.3736,-6.3788,-6.3848,-6.3898,-6.3948,-6.3961,-6.4002,-6.4004,-6.4075,-6.4035,-6.4132,-6.4086,-6.4118,-6.4136,-6.414,-6.4143,-6.4095,-6.4167,-6.4303,-6.4316,-6.4153,-6.4152,-6.415,0,-6.3556,-6.3656,-6.3736,-6.3762,-6.3827,-6.3865,-6.3893,-6.3941,-6.3978,-6.4031,-6.4055,-6.4115,-6.4147,-6.4194,-6.4213,-6.4182,-6.431,-6.427,-6.4321,-6.432,-6.4342,-6.434,-6.4482,-6.437,-6.437,-6.437,-6.437,0,-6.3658,-6.3726,-6.3765,-6.3814,-6.389,-6.3911,-6.3986,-6.4013,-6.4057,-6.4111,-6.4114,-6.4164,-6.4188,-6.4243,-6.4259,-6.4337,-6.4353,-6.4364,-6.4366,-6.4361,-6.4359,-6.4378,-6.437,-6.4374,-6.4373,-6.4372,-6.4371,0,-6.3738,-6.3768,-6.3855,-6.3912,-6.3928,-6.3982,-6.403,-6.4078,-6.4102,-6.4171,-6.4188,-6.4226,-6.4291,-6.4317,-6.4396,-6.4407,-6.4496,-6.4495,-6.4479,-6.4479,-6.4526,-6.452,-6.4681,-6.4703,-6.4581,-6.4582,-6.4583,0,-6.3799,-6.3852,-6.3916,-6.3954,-6.3984,-6.4044,-6.4084,-6.4107,-6.4148,-6.4212,-6.4252,-6.4318,-6.4371,-6.4476,-6.4509,-6.4571,-6.4569,-6.4622,-6.4578,-6.4572,-6.4567,-6.4562,-6.4567,-6.4628,-6.4629,-6.463,-6.4631,0,-6.3904,-6.3917,-6.3974,-6.4038,-6.4085,-6.4136,-6.4185,-6.4215,-6.4247,-6.4293,-6.4361,-6.4403,-6.4486,-6.4551,-6.4616,-6.4645,-6.4643,-6.4646,-6.466,-6.4653,-6.464,-6.4645,-6.4497,-6.464,-6.4639,-6.4639,-6.4638,-6.4638,-6.3974,-6.4021,-6.4075,-6.4139,-6.418,-6.4227,-6.4275,-6.4308,-6.4365,-6.4435,-6.4447,-6.4519,-6.4571,-6.4658,-6.4691,-6.4749,-6.4734,-6.4756,-6.476,-6.4764,-6.4766,-6.4636,-6.4761,-6.4761,-6.4761,-6.476,-6.476,0,-6.4076,-6.4112,-6.4172,-6.4242,-6.4293,-6.4292,-6.4348,-6.439,-6.4454,-6.4504,-6.4558,-6.4637,-6.4702,-6.4744,-6.4809,-6.4847,-6.4848,-6.4863,-6.4858,-6.4865,-6.4776,-6.4756,-6.4861,-6.4861,-6.4861,-6.4861,-6.4861,-6.4861,-6.4135,-6.4215,-6.4236,-6.4337,-6.4372,-6.4444,-6.4476,-6.4521,-6.456,-6.4649,-6.4704,-6.4732,-6.4779,-6.4849,-6.4909,-6.492,-6.4942,-6.4958,-6.4967,-6.4882,-6.4871,-6.4861,-6.4842,-6.4963,-6.4964,-6.5051,-6.5051,-6.5052]},{"header":{"parameterUnit":"m.s-1","parameterCategory":1,"la1":30.2991,"la2":30.254,"lo1":-89.0895,"lo2":-89.0444,"dy":0.0017,"dx":0.0017,"nx":28,"ny":28,"refTime":"2025-03-27T21:00:00:Z","depth":0,"parameterNumber":3,"parameterNumberName":"V-component_of_WINDS"},"data":[0,0,0,0,0,0,0,0,0,0,0,0,0,0,0,0,0,0,0,0,0,0,0,0,0,0,0,0,0,0,0,0,0,0,0,0,0,0,0,0,0,0,0,0,0,0,0,0,0,0,0,0,0,0,0,0,0,0,2.6289,2.629,0,2.6385,2.6386,2.6387,2.6484,2.6486,2.6487,2.6488,2.6583,2.6584,2.6586,0,0,0,0,0,0,0,0,0,0,0,0,0,2.6187,2.6188,2.6289,2.629,2.6291,2.6385,2.6386,2.6387,2.6484,2.6486,2.6487,2.6489,2.6583,2.6584,2.6586,0,0,0,0,0,0,0,0,0,0,0,0,0,2.6252,2.6189,2.6288,2.6351,2.6357,2.6384,2.6386,2.6388,2.6484,2.6486,2.6488,2.649,2.6582,2.6584,2.6586,2.6558,0,0,2.6592,2.6593,0,0,0,0,0,0,0,0,2.6248,2.6255,2.634,2.6347,2.6354,2.6425,2.6385,2.6445,2.6483,2.6436,2.6488,2.6491,2.6529,2.6535,2.6549,2.6562,2.6567,2.6592,2.6593,2.6594,2.6595,0,0,0,0,0,0,0,2.6243,2.6252,2.6327,2.6342,2.635,2.6373,2.6385,2.6397,2.647,2.644,2.6447,2.6458,2.6533,2.6546,2.6551,2.6568,2.6592,2.6594,2.6595,2.6596,2.6565,2.6564,0,0,0,0,0,0,2.623,2.6247,2.6324,2.633,2.6305,2.6374,2.6386,2.64,2.647,2.6482,2.6456,2.6462,2.6542,2.6549,2.6555,2.6529,2.6594,2.6596,2.6597,2.6567,2.6565,2.6563,0,0,0,0,0,0,2.6227,2.6236,2.632,2.6291,2.6303,2.6373,2.6388,2.6401,2.6415,2.6482,2.6495,2.6457,2.6544,2.6552,2.6557,2.6533,2.6597,2.6598,2.657,2.6567,2.6564,2.6474,0,0,0,0,0,0,2.6224,2.6234,2.6225,2.629,2.6304,2.632,2.6386,2.6401,2.6418,2.6427,2.6486,2.6498,2.6546,2.6554,2.6559,2.6537,2.66,2.6572,2.6568,2.6565,2.6479,2.6468,2.6458,0,0,0,0,0,2.622,2.6194,2.6224,2.6232,2.6294,2.6319,2.6327,2.6385,2.6416,2.6407,2.645,2.6496,2.6535,2.6554,2.656,2.6538,2.6574,2.6569,2.6565,2.6484,2.647,2.6459,0,0,0,0,0,0,2.6123,2.6204,2.6237,2.6232,2.6268,2.6335,2.6326,2.6368,2.6395,2.6402,2.6471,2.6483,2.648,2.651,2.6529,2.6516,2.6561,2.6557,2.6496,2.6484,2.6474,2.6467,2.6601,0,0,0,0,0,2.6101,2.6115,2.6185,2.6174,2.619,2.6254,2.6267,2.6309,2.6348,2.6364,2.6407,2.6443,2.6464,2.6475,2.6498,2.6484,2.6498,2.6472,2.6462,2.6453,2.6449,2.6445,2.6434,2.6548,2.6548,2.6549,0,0,2.6056,2.6102,2.6106,2.6155,2.6188,2.6201,2.6267,2.6277,2.6287,2.6365,2.6373,2.6406,2.645,2.6446,2.6446,2.647,2.6421,2.6447,2.644,2.6441,2.6439,2.6428,2.6419,2.6545,2.6546,2.6546,0,0,2.598,2.6016,2.6012,2.6044,2.6093,2.6136,2.6135,2.6196,2.6222,2.6231,2.629,2.6303,2.6336,2.6366,2.6385,2.6323,2.6366,2.6328,2.6274,2.6269,2.626,2.6252,2.6231,2.6222,2.6324,2.6324,2.6324,0,2.5917,2.594,2.6003,2.6011,2.6031,2.6104,2.6099,2.6127,2.618,2.6192,2.6219,2.6264,2.6299,2.6303,2.6288,2.6301,2.6301,2.6321,2.6256,2.6249,2.6243,2.6223,2.6215,2.6319,2.6319,2.632,2.632,0,2.5861,2.5876,2.5866,2.5918,2.5937,2.5938,2.6001,2.6012,2.6052,2.6092,2.6101,2.6146,2.6179,2.6183,2.6221,2.6193,2.6207,2.6244,2.6291,2.6226,2.6209,2.6201,2.6312,2.6314,2.6315,2.6316,0,0,2.5726,2.5814,2.581,2.5835,2.5895,2.5908,2.5912,2.5947,2.5955,2.599,2.5996,2.6023,2.6059,2.6081,2.6123,2.6118,2.6067,2.6157,2.6159,2.6139,2.6039,2.6011,2.6001,2.6096,2.6095,2.6094,2.6036,0,2.5662,2.5676,2.5734,2.5731,2.5746,2.5815,2.582,2.5857,2.5895,2.5912,2.5954,2.5973,2.6017,2.6031,2.603,2.6073,2.6048,2.6078,2.6102,2.6102,2.6089,2.5992,2.5962,2.5905,2.6029,2.6028,2.6027,0,2.5588,2.562,2.5619,2.5681,2.5689,2.5692,2.5729,2.5745,2.5788,2.5816,2.5841,2.5889,2.5898,2.5941,2.5954,2.5974,2.5987,2.6009,2.6009,2.6013,2.6061,2.5994,2.5889,2.588,2.6017,2.6018,2.6018,0,2.5491,2.5534,2.5539,2.5558,2.563,2.563,2.566,2.5706,2.5723,2.5755,2.5767,2.5798,2.5815,2.5838,2.5893,2.592,2.59,2.5948,2.5923,2.5921,2.5916,2.5915,2.5811,2.5923,2.5923,2.5923,2.5923,0,2.5413,2.541,2.5497,2.55,2.5498,2.5564,2.5561,2.5597,2.5637,2.5648,2.571,2.5719,2.5791,2.5807,2.585,2.5855,2.5862,2.5884,2.5896,2.5879,2.5876,2.5889,2.5894,2.5921,2.5922,2.5922,2.5922,0,2.5305,2.5363,2.5373,2.5441,2.5458,2.5454,2.5511,2.5517,2.5559,2.5572,2.5579,2.5644,2.5668,2.5725,2.5763,2.5792,2.5785,2.5805,2.577,2.5778,2.575,2.5752,2.565,2.564,2.5757,2.5756,2.5755,0,2.5252,2.5251,2.5319,2.5332,2.5359,2.5378,2.5397,2.5462,2.5479,2.5529,2.5528,2.5557,2.5583,2.5617,2.5667,2.5697,2.5719,2.5681,2.5724,2.5707,2.5719,2.5719,2.5719,2.5672,2.567,2.5669,2.5668,0,2.5151,2.518,2.5205,2.5241,2.5261,2.5292,2.5326,2.5332,2.5405,2.5421,2.5446,2.5467,2.5506,2.5534,2.5571,2.5601,2.5646,2.5654,2.565,2.5633,2.5613,2.5625,2.5745,2.5656,2.5657,2.5658,2.5659,2.5659,2.507,2.5073,2.5122,2.5148,2.518,2.5211,2.522,2.5264,2.5287,2.5325,2.5362,2.5383,2.5428,2.5483,2.551,2.5528,2.5551,2.5544,2.5543,2.5541,2.5534,2.561,2.5534,2.5535,2.5535,2.5536,2.5536,0,2.4973,2.5009,2.5032,2.5078,2.5099,2.5141,2.5181,2.5195,2.5214,2.5252,2.5278,2.5307,2.5334,2.5387,2.5419,2.5423,2.5444,2.5429,2.5429,2.5436,2.5511,2.5511,2.5411,2.5411,2.5411,2.5411,2.5411,2.5411,2.4926,2.4934,2.4969,2.4994,2.5029,2.5052,2.5071,2.51,2.5131,2.5161,2.5185,2.522,2.5264,2.53,2.5327,2.5342,2.535,2.5328,2.535,2.5419,2.543,2.5442,2.5443,2.533,2.5329,2.5274,2.5273,2.5273]}]]